Location: Neuvy Saint Sepulchre
(46.5953°N, 1.8122°E)
Time: 16:02:33
(UTC+02:00)

ISS - Pass Details

Date: 09 May 2026
Orbit: 414 x 424 km, 51.6° (Epoch: 21 May)

Event Time Altitude Azimuth Distance (km) Brightness Sun altitude
Rises 00:02:24 0° 256° (WSW) 2,345 0.2 -21.7°
Reaches altitude 10° 00:04:31 10° 261° (W) 1,485 -0.8 -21.9°
Maximum altitude 00:07:48 54° 341° (NNW) 510 -3.1 -22.1°
Enters shadow 00:08:08 51° 7° (N) 530 -3.0 -22.2°
